Weather History for Meacham, OR

Change the Weather History Date:

Wednesday, April 24, 2013

  Actual Average Record
Temperature  
Mean Temperature 42 °F -  
Max Temperature 62 °F 54 °F 68 °F (2001)
Min Temperature 23 °F 28 °F 19 °F (2002)
Degree Days  
Heating Degree Days 23    
Moisture  
Dew Point 25 °F    
Average Humidity 58    
Maximum Humidity 92    
Minimum Humidity 24    
Precipitation  
Precipitation 0.00 in - - ()
Sea Level Pressure  
Sea Level Pressure 30.22 in    
Wind  
Wind Speed 0 mph (North)    
Max Wind Speed 5 mph    
Max Gust Speed -    
Visibility 10 miles    
Events      
Averages and records for this station are not official NWS values.
T = Trace of Precipitation, MM = Missing Value Source: NWS Daily Summary

Daily Weather History Graph

Daily Weather History Graph

Search for Another Location

Airport:

Trip Planner

Search our weather history database for the weather conditions in past years. The results will help you decide how hot, cold, wet, or windy it might be!

Date:

Astronomy

Apr. 24, 2013 Rise Set
Actual Time 5:52 AM PDT 7:52 PM PDT
Civil Twilight 5:20 AM PDT 8:24 PM PDT
Nautical Twilight 4:41 AM PDT 9:03 PM PDT
Astronomical Twilight 3:58 AM PDT 9:46 PM PDT
Moon 6:59 PM PDT (4/24) 5:02 AM PDT (4/24)
Length of Visible Light 15h 03m
Length of Day
13h 59m
Waxing Gibbous, 98% of the Moon is Illuminated
Apr 24
Waxing Gibbous
Apr 25
Full
May 2
Last Quarter
May 9
New
May 17
First Quarter

Hourly Weather History & Observations

Time (PDT) Temp. Dew Point Humidity Pressure Visibility Wind Dir Wind Speed Gust Speed Precip Events Conditions
12:56 AM 27.0 °F 23.0 °F 85% 30.30 in 10.0 mi Calm Calm - N/A   Clear
1:56 AM 26.1 °F 23.0 °F 88% 30.30 in 10.0 mi Calm Calm - N/A   Clear
2:56 AM 25.0 °F 21.9 °F 88% 30.31 in 10.0 mi Calm Calm - N/A   Clear
3:56 AM 24.1 °F 21.0 °F 88% 30.32 in 10.0 mi Calm Calm - N/A   Clear
4:56 AM 23.0 °F 21.0 °F 92% 30.33 in 10.0 mi Calm Calm - N/A   Clear
5:56 AM 23.0 °F 19.9 °F 88% 30.34 in 10.0 mi Calm Calm - N/A   Clear
7:56 AM 33.1 °F 27.0 °F 78% 30.33 in 10.0 mi Calm Calm - N/A   Clear
8:56 AM 44.1 °F 30.0 °F 58% 30.31 in 10.0 mi Calm Calm - N/A   Clear
9:56 AM 48.9 °F 21.0 °F 33% 30.31 in 10.0 mi Calm Calm - N/A   Clear
10:56 AM 52.0 °F 23.0 °F 32% 30.30 in 10.0 mi Calm Calm - N/A   Clear
11:56 AM 53.1 °F 21.9 °F 30% 30.28 in 10.0 mi Calm Calm - N/A   Clear
12:56 PM 57.0 °F 23.0 °F 27% 30.25 in 10.0 mi Calm Calm - N/A   Clear
1:56 PM 57.9 °F 25.0 °F 28% 30.22 in 10.0 mi Calm Calm - N/A   Clear
2:56 PM 61.0 °F 24.1 °F 24% 30.19 in 10.0 mi Variable 3.5 mph - N/A   Clear
3:56 PM 61.0 °F 28.0 °F 29% 30.17 in 10.0 mi Variable 3.5 mph - N/A   Clear
4:56 PM 60.1 °F 26.1 °F 27% 30.14 in 10.0 mi Variable 3.5 mph - N/A   Clear
5:56 PM 57.9 °F 25.0 °F 28% 30.13 in 10.0 mi Variable 4.6 mph - N/A   Clear
6:56 PM 53.1 °F 28.9 °F 40% 30.13 in 10.0 mi Calm Calm - N/A   Clear
7:56 PM 46.9 °F 30.9 °F 54% 30.11 in 10.0 mi Calm Calm - N/A   Clear
8:56 PM 41.0 °F 32.0 °F 70% 30.09 in 10.0 mi Calm Calm - N/A   Clear
9:56 PM 37.0 °F 30.9 °F 79% 30.09 in 10.0 mi Calm Calm - N/A   Clear
10:56 PM 35.1 °F 30.0 °F 82% 30.07 in 10.0 mi Calm Calm - N/A   Clear
11:56 PM 32.0 °F 28.0 °F 85% 30.05 in 10.0 mi Calm Calm - N/A   Clear